• Em Portugal
  • Lista de países
  • Para 7 dias
  • Temperatura da água
  • Mapas de satélite
  • Mapa do tempo
  • Widgets de tempo
  • user-avatar
    Iniciar Sessão

    Previsão horária em Ghent

    Hoje, 15 Outubro, Segunda-feira

    Tempo Temperatura Precipitação Vento Pressão Humidade
    00:00 +18°C° 0 mm 4 m/s 755 mmHg 67%
    01:00 +18°C° 0 mm 4 m/s 755 mmHg 65%
    02:00 +18°C° 0 mm 4 m/s 755 mmHg 64%
    03:00 +18°C° 0 mm 4 m/s 755 mmHg 63%
    04:00 +17°C° 0.1 mm 4 m/s 755 mmHg 65%
    05:00 +17°C° 0.1 mm 4 m/s 756 mmHg 66%
    06:00 +15°C° 0 mm 4 m/s 756 mmHg 72%
    07:00 +18°C° 0 mm 4 m/s 756 mmHg 69%
    08:00 +19°C° 0 mm 5 m/s 757 mmHg 65%
    09:00 +20°C° 0 mm 5 m/s 757 mmHg 62%
    10:00 +21°C° 0 mm 5 m/s 757 mmHg 59%
    11:00 +23°C° 0 mm 5 m/s 757 mmHg 56%
    12:00 +25°C° 0 mm 4 m/s 758 mmHg 51%
    13:00 +25°C° 0 mm 4 m/s 758 mmHg 52%
    14:00 +25°C° 0 mm 3 m/s 758 mmHg 53%
    15:00 +25°C° 0 mm 2 m/s 758 mmHg 54%
    16:00 +23°C° 0 mm 2 m/s 758 mmHg 59%
    17:00 +20°C° 0 mm 2 m/s 759 mmHg 65%
    18:00 +20°C° 0 mm 1 m/s 759 mmHg 71%
    19:00 +19°C° 0 mm 1 m/s 760 mmHg 72%
    20:00 +19°C° 0 mm 1 m/s 760 mmHg 74%
    21:00 +18°C° 0 mm 1 m/s 761 mmHg 76%
    22:00 +18°C° 0 mm 1 m/s 761 mmHg 75%
    23:00 +16°C° 0 mm 1 m/s 761 mmHg 75%

    Amanhã, 16 Outubro, Terça-feira

    Tempo Temperatura Precipitação Vento Pressão Humidade
    00:00 +16°C° 0 mm 1 m/s 761 mmHg 74%
    01:00 +16°C° 0 mm 2 m/s 761 mmHg 73%
    02:00 +16°C° 0 mm 2 m/s 761 mmHg 72%
    03:00 +16°C° 0 mm 2 m/s 761 mmHg 71%
    04:00 +15°C° 0 mm 2 m/s 761 mmHg 71%
    05:00 +15°C° 0 mm 2 m/s 762 mmHg 70%
    06:00 +15°C° 0 mm 2 m/s 762 mmHg 69%
    07:00 +17°C° 0 mm 2 m/s 762 mmHg 66%
    08:00 +18°C° 0 mm 2 m/s 762 mmHg 63%
    09:00 +20°C° 0 mm 2 m/s 762 mmHg 59%
    10:00 +21°C° 0 mm 2 m/s 762 mmHg 56%
    11:00 +24°C° 0 mm 3 m/s 762 mmHg 52%
    12:00 +25°C° 0 mm 3 m/s 762 mmHg 49%
    13:00 +25°C° 0 mm 3 m/s 762 mmHg 50%
    14:00 +25°C° 0 mm 3 m/s 762 mmHg 51%
    15:00 +25°C° 0 mm 2 m/s 762 mmHg 52%
    16:00 +23°C° 0 mm 2 m/s 762 mmHg 57%
    17:00 +20°C° 0 mm 2 m/s 762 mmHg 62%
    18:00 +19°C° 0 mm 2 m/s 762 mmHg 67%
    19:00 +18°C° 0 mm 2 m/s 763 mmHg 69%
    20:00 +18°C° 0 mm 3 m/s 763 mmHg 70%
    21:00 +17°C° 0 mm 3 m/s 763 mmHg 72%
    22:00 +17°C° 0 mm 3 m/s 763 mmHg 75%
    23:00 +16°C° 0 mm 2 m/s 763 mmHg 78%

    Depois de amanhã, 17 Outubro, Quarta-feira

    Tempo Temperatura Precipitação Vento Pressão Humidade
    00:00 +15°C° 0 mm 2 m/s 763 mmHg 80%
    01:00 +15°C° 0 mm 2 m/s 763 mmHg 83%
    02:00 +15°C° 0 mm 1 m/s 763 mmHg 86%
    03:00 +14°C° 0 mm 1 m/s 763 mmHg 88%
    04:00 +14°C° 0 mm 1 m/s 763 mmHg 89%
    05:00 +14°C° 0 mm 1 m/s 763 mmHg 89%
    06:00 +14°C° 0 mm 1 m/s 763 mmHg 90%
    07:00 +15°C° 0 mm 1 m/s 763 mmHg 85%
    08:00 +15°C° 0 mm 0 m/s 763 mmHg 81%
    09:00 +17°C° 0 mm 0 m/s 763 mmHg 76%
    10:00 +20°C° 0 mm 1 m/s 763 mmHg 72%
    11:00 +21°C° 0 mm 1 m/s 763 mmHg 67%
    12:00 +22°C° 0 mm 1 m/s 763 mmHg 63%
    13:00 +21°C° 0 mm 2 m/s 763 mmHg 64%
    14:00 +21°C° 0 mm 2 m/s 763 mmHg 65%
    15:00 +21°C° 0 mm 3 m/s 762 mmHg 66%
    16:00 +19°C° 0 mm 3 m/s 763 mmHg 72%
    17:00 +18°C° 0 mm 3 m/s 763 mmHg 78%
    18:00 +16°C° 0 mm 3 m/s 763 mmHg 85%
    19:00 +16°C° 0 mm 3 m/s 763 mmHg 86%
    20:00 +16°C° 0 mm 3 m/s 764 mmHg 88%
    21:00 +14°C° 0 mm 3 m/s 764 mmHg 90%
    22:00 +14°C° 0 mm 3 m/s 764 mmHg 91%
    23:00 +14°C° 0 mm 3 m/s 764 mmHg 92%

    18 Outubro, Quinta-feira

    Tempo Temperatura Precipitação Vento Pressão Humidade
    00:00 +13°C° 0 mm 3 m/s 764 mmHg 93%
    01:00 +13°C° 0 mm 3 m/s 764 mmHg 94%
    02:00 +13°C° 0 mm 4 m/s 764 mmHg 94%
    03:00 +13°C° 0 mm 4 m/s 764 mmHg 95%
    04:00 +13°C° 0 mm 4 m/s 764 mmHg 95%
    05:00 +13°C° 0 mm 4 m/s 764 mmHg 95%
    06:00 +13°C° 0 mm 4 m/s 765 mmHg 95%
    07:00 +14°C° 0 mm 4 m/s 765 mmHg 91%
    08:00 +15°C° 0 mm 5 m/s 765 mmHg 86%
    09:00 +16°C° 0 mm 5 m/s 765 mmHg 82%
    10:00 +17°C° 0 mm 5 m/s 765 mmHg 77%
    11:00 +19°C° 0 mm 5 m/s 765 mmHg 72%
    12:00 +20°C° 0 mm 5 m/s 765 mmHg 67%
    13:00 +20°C° 0 mm 5 m/s 765 mmHg 67%
    14:00 +21°C° 0 mm 5 m/s 765 mmHg 67%
    15:00 +21°C° 0 mm 5 m/s 765 mmHg 67%
    16:00 +19°C° 0 mm 5 m/s 765 mmHg 72%
    17:00 +17°C° 0 mm 5 m/s 765 mmHg 76%
    18:00 +16°C° 0 mm 5 m/s 765 mmHg 81%
    19:00 +15°C° 0 mm 5 m/s 766 mmHg 82%
    20:00 +15°C° 0 mm 5 m/s 766 mmHg 84%
    21:00 +14°C° 0 mm 4 m/s 767 mmHg 85%
    22:00 +13°C° 0 mm 4 m/s 767 mmHg 86%
    23:00 +13°C° 0 mm 4 m/s 767 mmHg 87%

    19 Outubro, Sexta-feira

    Tempo Temperatura Precipitação Vento Pressão Humidade
    00:00 +12°C° 0 mm 4 m/s 767 mmHg 88%
    01:00 +12°C° 0 mm 3 m/s 767 mmHg 88%
    02:00 +11°C° 0 mm 3 m/s 767 mmHg 89%
    03:00 +11°C° 0 mm 3 m/s 766 mmHg 89%
    04:00 +10°C° 0 mm 3 m/s 767 mmHg 90%
    05:00 +10°C° 0 mm 3 m/s 767 mmHg 91%
    06:00 +10°C° 0 mm 3 m/s 767 mmHg 91%
    07:00 +11°C° 0 mm 3 m/s 767 mmHg 87%
    08:00 +13°C° 0 mm 3 m/s 767 mmHg 83%
    09:00 +14°C° 0 mm 3 m/s 768 mmHg 79%
    10:00 +16°C° 0 mm 3 m/s 768 mmHg 74%
    11:00 +18°C° 0 mm 3 m/s 768 mmHg 69%
    12:00 +19°C° 0 mm 3 m/s 768 mmHg 65%
    13:00 +19°C° 0 mm 3 m/s 767 mmHg 64%
    14:00 +19°C° 0 mm 3 m/s 767 mmHg 64%
    15:00 +19°C° 0 mm 3 m/s 767 mmHg 63%
    16:00 +18°C° 0 mm 3 m/s 767 mmHg 67%
    17:00 +16°C° 0 mm 3 m/s 767 mmHg 71%
    18:00 +14°C° 0 mm 3 m/s 768 mmHg 76%
    19:00 +13°C° 0 mm 3 m/s 768 mmHg 75%
    20:00 +13°C° 0 mm 3 m/s 769 mmHg 75%
    21:00 +12°C° 0 mm 3 m/s 769 mmHg 74%
    22:00 +11°C° 0 mm 3 m/s 769 mmHg 74%
    23:00 +11°C° 0 mm 3 m/s 769 mmHg 74%

    20 Outubro, Sábado

    Tempo Temperatura Precipitação Vento Pressão Humidade
    00:00 +10°C° 0 mm 3 m/s 769 mmHg 73%
    01:00 +10°C° 0 mm 2 m/s 769 mmHg 74%
    02:00 +10°C° 0 mm 2 m/s 769 mmHg 74%
    03:00 +9°C° 0 mm 2 m/s 769 mmHg 74%
    04:00 +9°C° 0 mm 2 m/s 770 mmHg 75%
    05:00 +9°C° 0 mm 2 m/s 770 mmHg 75%
    06:00 +9°C° 0 mm 2 m/s 770 mmHg 75%
    07:00 +10°C° 0 mm 3 m/s 770 mmHg 71%
    08:00 +11°C° 0 mm 3 m/s 771 mmHg 67%
    09:00 +12°C° 0 mm 3 m/s 771 mmHg 63%
    10:00 +14°C° 0 mm 3 m/s 771 mmHg 58%
    11:00 +16°C° 0 mm 3 m/s 771 mmHg 53%
    12:00 +18°C° 0 mm 2 m/s 771 mmHg 48%
    13:00 +18°C° 0 mm 2 m/s 771 mmHg 48%
    14:00 +18°C° 0 mm 2 m/s 771 mmHg 48%
    15:00 +18°C° 0 mm 2 m/s 770 mmHg 48%
    16:00 +16°C° 0 mm 2 m/s 771 mmHg 51%
    17:00 +15°C° 0 mm 2 m/s 771 mmHg 54%
    18:00 +13°C° 0 mm 2 m/s 771 mmHg 56%
    19:00 +12°C° 0 mm 2 m/s 771 mmHg 57%
    20:00 +12°C° 0 mm 2 m/s 772 mmHg 58%
    21:00 +10°C° 0 mm 2 m/s 772 mmHg 59%
    22:00 +10°C° 0 mm 2 m/s 772 mmHg 60%
    23:00 +9°C° 0 mm 2 m/s 771 mmHg 61%
    Mostrar mais